User: anonymous   Login
Location: Unspecified
(0.0000°N, 0.0000°E)
Time: 00:30:49
(UTC+01:00)
Language:

Atlas Centaur 2 - Orbit

View from above orbital plane
View from above orbital plane
View from above satellite
View from above satellite

Ground track
Ground track

The orbit data is extracted from the following two-line orbital elements,

1   694U 63047A   17345.94315345 +.00000305 +00000-0 +27278-4 0  9991
2   694 030.3558 266.8204 0587267 133.7992 231.2727 14.02239874708067
Epoch (UTC): 11 December 2017 22:38:08
Eccentricity: 0.0587267
inclination: 30.3558°
perigee height: 459 km
apogee height: 1312 km
right ascension of ascending node: 266.8204°
argument of perigee: 133.7992°
revolutions per day: 14.02239874
mean anomaly at epoch: 231.2727°
orbit number at epoch: 70806

The dashed part of the orbit path shows where the satellite is in the earth's shadow,  

DLR